• In Hungary
  • List of Countries
  • For 7 days
  • Water Temperature
  • Satellite Maps
  • Weather Map
  • News
  • Weather Widgets
  • user-avatar
    Login

    Hourly Weather Marcinowka

    Today, 22 July, Sunday

    Time Temperature Precipitation Wind Pressure Humidity
    00:00 +19°C° 0 mm 1 mps 735 mmHg 82%
    01:00 +19°C° 0 mm 1 mps 735 mmHg 83%
    02:00 +17°C° 0 mm 0 mps 735 mmHg 85%
    03:00 +17°C° 0 mm 0 mps 735 mmHg 86%
    04:00 +17°C° 0 mm 0 mps 735 mmHg 86%
    05:00 +16°C° 0 mm 0 mps 735 mmHg 86%
    06:00 +18°C° 0 mm 0 mps 735 mmHg 83%
    07:00 +21°C° 0 mm 1 mps 735 mmHg 79%
    08:00 +23°C° 0 mm 1 mps 735 mmHg 75%
    09:00 +24°C° 0.2 mm 1 mps 735 mmHg 69%
    10:00 +26°C° 0.2 mm 2 mps 735 mmHg 63%
    11:00 +27°C° 0.2 mm 2 mps 735 mmHg 57%
    12:00 +27°C° 0 mm 2 mps 735 mmHg 55%
    13:00 +28°C° 0 mm 2 mps 734 mmHg 53%
    14:00 +28°C° 0 mm 3 mps 734 mmHg 52%
    15:00 +28°C° 0.1 mm 3 mps 734 mmHg 54%
    16:00 +28°C° 0.1 mm 3 mps 734 mmHg 56%
    17:00 +28°C° 0.1 mm 3 mps 734 mmHg 58%
    18:00 +26°C° 0.2 mm 2 mps 734 mmHg 65%
    19:00 +24°C° 0.2 mm 2 mps 734 mmHg 73%
    20:00 +23°C° 0.2 mm 2 mps 734 mmHg 80%
    21:00 +21°C° 0 mm 2 mps 734 mmHg 83%
    22:00 +20°C° 0 mm 2 mps 734 mmHg 86%
    23:00 +19°C° 0 mm 2 mps 734 mmHg 89%

    Tomorrow, 23 July, Monday

    Time Temperature Precipitation Wind Pressure Humidity
    00:00 +19°C° 0 mm 2 mps 734 mmHg 90%
    01:00 +18°C° 0 mm 2 mps 734 mmHg 90%
    02:00 +18°C° 0 mm 2 mps 734 mmHg 91%
    03:00 +18°C° 0 mm 2 mps 734 mmHg 92%
    04:00 +18°C° 0 mm 2 mps 734 mmHg 92%
    05:00 +18°C° 0 mm 3 mps 734 mmHg 93%
    06:00 +19°C° 0.2 mm 3 mps 734 mmHg 90%
    07:00 +20°C° 0.2 mm 4 mps 734 mmHg 88%
    08:00 +21°C° 0.2 mm 4 mps 734 mmHg 85%
    09:00 +22°C° 0.3 mm 4 mps 734 mmHg 82%
    10:00 +22°C° 0.3 mm 5 mps 734 mmHg 78%
    11:00 +23°C° 0.3 mm 5 mps 734 mmHg 75%
    12:00 +23°C° 0.5 mm 5 mps 734 mmHg 76%
    13:00 +23°C° 0.5 mm 4 mps 734 mmHg 77%
    14:00 +23°C° 0.5 mm 4 mps 734 mmHg 78%
    15:00 +23°C° 0.5 mm 4 mps 734 mmHg 78%
    16:00 +25°C° 0.5 mm 4 mps 734 mmHg 78%
    17:00 +25°C° 0.5 mm 4 mps 733 mmHg 78%
    18:00 +23°C° 0.3 mm 4 mps 734 mmHg 80%
    19:00 +22°C° 0.3 mm 4 mps 734 mmHg 83%
    20:00 +22°C° 0.3 mm 4 mps 734 mmHg 85%
    21:00 +21°C° 0.3 mm 4 mps 734 mmHg 87%
    22:00 +20°C° 0.3 mm 4 mps 734 mmHg 88%
    23:00 +20°C° 0.3 mm 4 mps 735 mmHg 90%

    Day after tomorrow, 24 July, Tuesday

    Time Temperature Precipitation Wind Pressure Humidity
    00:00 +19°C° 0.1 mm 4 mps 734 mmHg 91%
    01:00 +19°C° 0.1 mm 4 mps 734 mmHg 92%
    02:00 +19°C° 0.1 mm 4 mps 734 mmHg 94%
    03:00 +18°C° 0.1 mm 4 mps 734 mmHg 94%
    04:00 +18°C° 0.1 mm 3 mps 734 mmHg 95%
    05:00 +18°C° 0.1 mm 3 mps 735 mmHg 96%
    06:00 +18°C° 0.3 mm 3 mps 735 mmHg 94%
    07:00 +19°C° 0.3 mm 4 mps 735 mmHg 92%
    08:00 +20°C° 0.3 mm 4 mps 735 mmHg 90%
    09:00 +21°C° 0.2 mm 4 mps 735 mmHg 87%
    10:00 +22°C° 0.2 mm 4 mps 735 mmHg 84%
    11:00 +22°C° 0.2 mm 4 mps 735 mmHg 81%
    12:00 +23°C° 1.2 mm 4 mps 735 mmHg 78%
    13:00 +25°C° 1.2 mm 5 mps 735 mmHg 75%
    14:00 +26°C° 1.2 mm 5 mps 734 mmHg 73%
    15:00 +26°C° 1.1 mm 5 mps 734 mmHg 73%
    16:00 +26°C° 1.1 mm 5 mps 734 mmHg 73%
    17:00 +26°C° 1.1 mm 5 mps 734 mmHg 72%
    18:00 +25°C° 0.8 mm 4 mps 734 mmHg 76%
    19:00 +23°C° 0.8 mm 4 mps 734 mmHg 80%
    20:00 +22°C° 0.8 mm 3 mps 734 mmHg 84%
    21:00 +21°C° 0.4 mm 3 mps 734 mmHg 87%
    22:00 +20°C° 0.4 mm 3 mps 734 mmHg 90%
    23:00 +19°C° 0.4 mm 3 mps 734 mmHg 92%

    25 July, Wednesday

    Time Temperature Precipitation Wind Pressure Humidity
    00:00 +19°C° 0 mm 3 mps 734 mmHg 94%
    01:00 +19°C° 0 mm 3 mps 734 mmHg 95%
    02:00 +18°C° 0 mm 2 mps 734 mmHg 97%
    03:00 +18°C° 0.1 mm 2 mps 734 mmHg 97%
    04:00 +18°C° 0.1 mm 2 mps 734 mmHg 97%
    05:00 +18°C° 0.1 mm 2 mps 734 mmHg 98%
    06:00 +19°C° 0.1 mm 2 mps 735 mmHg 96%
    07:00 +20°C° 0.1 mm 2 mps 735 mmHg 93%
    08:00 +21°C° 0.1 mm 2 mps 735 mmHg 91%
    09:00 +22°C° 0.2 mm 3 mps 735 mmHg 86%
    10:00 +24°C° 0.2 mm 3 mps 735 mmHg 81%
    11:00 +25°C° 0.2 mm 3 mps 735 mmHg 76%
    12:00 +26°C° 0.3 mm 3 mps 735 mmHg 73%
    13:00 +27°C° 0.3 mm 3 mps 734 mmHg 69%
    14:00 +27°C° 0.3 mm 3 mps 734 mmHg 66%
    15:00 +27°C° 0.5 mm 3 mps 734 mmHg 67%
    16:00 +27°C° 0.5 mm 3 mps 734 mmHg 68%
    17:00 +27°C° 0.5 mm 3 mps 734 mmHg 70%
    18:00 +26°C° 0.4 mm 2 mps 734 mmHg 74%
    19:00 +25°C° 0.4 mm 2 mps 734 mmHg 79%
    20:00 +23°C° 0.4 mm 1 mps 734 mmHg 84%
    21:00 +23°C° 0 mm 1 mps 734 mmHg 86%
    22:00 +22°C° 0 mm 1 mps 734 mmHg 88%
    23:00 +21°C° 0 mm 1 mps 734 mmHg 90%

    26 July, Thursday

    Time Temperature Precipitation Wind Pressure Humidity
    00:00 +21°C° 0 mm 1 mps 734 mmHg 91%
    01:00 +20°C° 0 mm 1 mps 734 mmHg 92%
    02:00 +20°C° 0 mm 1 mps 734 mmHg 94%
    03:00 +20°C° 0 mm 1 mps 734 mmHg 94%
    04:00 +20°C° 0 mm 1 mps 735 mmHg 95%
    05:00 +20°C° 0 mm 1 mps 735 mmHg 95%
    06:00 +21°C° 0 mm 1 mps 735 mmHg 91%
    07:00 +22°C° 0 mm 1 mps 735 mmHg 88%
    08:00 +24°C° 0 mm 1 mps 735 mmHg 84%
    09:00 +25°C° 0.3 mm 1 mps 736 mmHg 79%
    10:00 +26°C° 0.3 mm 1 mps 736 mmHg 73%
    11:00 +27°C° 0.3 mm 1 mps 736 mmHg 68%
    12:00 +28°C° 0.2 mm 1 mps 736 mmHg 65%
    13:00 +29°C° 0.2 mm 1 mps 736 mmHg 62%
    14:00 +29°C° 0.2 mm 1 mps 736 mmHg 59%
    15:00 +29°C° 0.2 mm 1 mps 736 mmHg 60%
    16:00 +29°C° 0.2 mm 1 mps 736 mmHg 60%
    17:00 +29°C° 0.2 mm 1 mps 736 mmHg 61%
    18:00 +28°C° 0.2 mm 1 mps 736 mmHg 67%
    19:00 +26°C° 0.2 mm 1 mps 736 mmHg 72%
    20:00 +25°C° 0.2 mm 1 mps 736 mmHg 78%
    21:00 +24°C° 0.7 mm 1 mps 736 mmHg 81%
    22:00 +23°C° 0.7 mm 1 mps 736 mmHg 84%
    23:00 +23°C° 0.7 mm 1 mps 736 mmHg 86%

    27 July, Friday

    Time Temperature Precipitation Wind Pressure Humidity
    00:00 +22°C° 0 mm 1 mps 736 mmHg 87%
    01:00 +22°C° 0 mm 1 mps 736 mmHg 88%
    02:00 +22°C° 0 mm 1 mps 736 mmHg 89%
    03:00 +21°C° 0 mm 1 mps 736 mmHg 90%
    04:00 +21°C° 0 mm 1 mps 736 mmHg 91%
    05:00 +21°C° 0 mm 1 mps 736 mmHg 92%
    06:00 +22°C° 0 mm 1 mps 736 mmHg 89%
    07:00 +24°C° 0 mm 1 mps 737 mmHg 85%
    08:00 +25°C° 0 mm 2 mps 737 mmHg 81%
    09:00 +26°C° 0.5 mm 2 mps 737 mmHg 77%
    10:00 +27°C° 0.5 mm 2 mps 737 mmHg 73%
    11:00 +28°C° 0.5 mm 2 mps 737 mmHg 69%
    12:00 +29°C° 0.9 mm 3 mps 737 mmHg 68%
    13:00 +29°C° 0.9 mm 3 mps 736 mmHg 68%
    14:00 +29°C° 0.9 mm 3 mps 736 mmHg 67%
    15:00 +29°C° 1 mm 2 mps 736 mmHg 69%
    16:00 +29°C° 1 mm 2 mps 736 mmHg 72%
    17:00 +28°C° 1 mm 2 mps 736 mmHg 74%
    18:00 +27°C° 1 mm 1 mps 736 mmHg 78%
    19:00 +26°C° 1 mm 1 mps 736 mmHg 81%
    20:00 +25°C° 1 mm 1 mps 736 mmHg 84%
    21:00 +24°C° 0.3 mm 1 mps 736 mmHg 85%
    22:00 +24°C° 0.3 mm 1 mps 736 mmHg 86%
    23:00 +23°C° 0.3 mm 1 mps 736 mmHg 87%
    Show more